TimeEST,TemperatureF,Dew PointF,Humidity,Sea Level PressureIn,VisibilityMPH,Wind Direction,Wind SpeedMPH,Gust SpeedMPH,PrecipitationIn,Events,Conditions,WindDirDegrees,DateUTC
12:15 AM,17.6,6.8,63,30.41,10.0,Calm,Calm,-,N/A,,Clear,0,2013-12-25 05:15:00
12:35 AM,17.6,8.6,68,30.40,10.0,Calm,Calm,-,N/A,,Clear,0,2013-12-25 05:35:00
12:55 AM,17.6,6.8,63,30.39,10.0,Calm,Calm,-,N/A,,Clear,0,2013-12-25 05:55:00
1:15 AM,17.6,8.6,68,30.39,10.0,Calm,Calm,-,N/A,,Clear,0,2013-12-25 06:15:00
1:35 AM,15.8,8.6,73,30.39,10.0,Calm,Calm,-,N/A,,Clear,0,2013-12-25 06:35:00
1:55 AM,15.8,10.4,79,30.40,10.0,Calm,Calm,-,N/A,,Clear,0,2013-12-25 06:55:00
2:15 AM,15.8,10.4,79,30.41,10.0,Calm,Calm,-,N/A,,Clear,0,2013-12-25 07:15:00
2:35 AM,15.8,8.6,73,30.42,10.0,West,4.6,-,N/A,,Clear,270,2013-12-25 07:35:00
2:55 AM,14.0,10.4,86,30.41,10.0,Calm,Calm,-,N/A,,Clear,0,2013-12-25 07:55:00
3:15 AM,14.0,8.6,79,30.41,10.0,Calm,Calm,-,N/A,,Clear,0,2013-12-25 08:15:00
3:35 AM,14.0,10.4,86,30.41,10.0,Calm,Calm,-,N/A,,Clear,0,2013-12-25 08:35:00
3:55 AM,14.0,10.4,86,30.41,10.0,Calm,Calm,-,N/A,,Clear,0,2013-12-25 08:55:00
4:15 AM,14.0,10.4,86,30.41,10.0,Calm,Calm,-,N/A,,Clear,0,2013-12-25 09:15:00
4:35 AM,14.0,10.4,86,30.41,10.0,Calm,Calm,-,N/A,,Clear,0,2013-12-25 09:35:00
4:55 AM,14.0,10.4,86,30.41,10.0,Calm,Calm,-,N/A,,Clear,0,2013-12-25 09:55:00
5:15 AM,12.2,10.4,92,30.41,10.0,Calm,Calm,-,N/A,,Clear,0,2013-12-25 10:15:00
5:35 AM,14.0,10.4,86,30.40,10.0,Calm,Calm,-,N/A,,Clear,0,2013-12-25 10:35:00
5:55 AM,12.2,10.4,92,30.41,10.0,Calm,Calm,-,N/A,,Clear,0,2013-12-25 10:55:00
6:15 AM,12.2,10.4,92,30.41,10.0,Calm,Calm,-,N/A,,Clear,0,2013-12-25 11:15:00
6:35 AM,12.2,10.4,92,30.42,10.0,Calm,Calm,-,N/A,,Clear,0,2013-12-25 11:35:00
6:55 AM,12.2,10.4,92,30.41,10.0,Calm,Calm,-,N/A,,Clear,0,2013-12-25 11:55:00
7:15 AM,12.2,10.4,92,30.41,10.0,Calm,Calm,-,N/A,,Clear,0,2013-12-25 12:15:00
7:35 AM,12.2,10.4,92,30.42,10.0,Calm,Calm,-,N/A,,Clear,0,2013-12-25 12:35:00
7:55 AM,12.2,10.4,92,30.42,10.0,Calm,Calm,-,N/A,,Clear,0,2013-12-25 12:55:00
8:15 AM,14.0,12.2,93,30.43,10.0,Calm,Calm,-,N/A,,Clear,0,2013-12-25 13:15:00
8:35 AM,15.8,12.2,86,30.43,10.0,Calm,Calm,-,N/A,,Clear,0,2013-12-25 13:35:00
8:55 AM,17.6,12.2,79,30.44,10.0,Calm,Calm,-,N/A,,Clear,0,2013-12-25 13:55:00
9:15 AM,19.4,14.0,80,30.45,10.0,Calm,Calm,-,N/A,,Clear,0,2013-12-25 14:15:00
9:35 AM,19.4,12.2,74,30.45,10.0,Calm,Calm,-,N/A,,Clear,0,2013-12-25 14:35:00
9:55 AM,21.2,12.2,68,30.45,10.0,Calm,Calm,-,N/A,,Clear,0,2013-12-25 14:55:00
10:15 AM,23.0,10.4,59,30.46,10.0,Calm,Calm,-,N/A,,Clear,0,2013-12-25 15:15:00
10:35 AM,24.8,10.4,54,30.45,10.0,Calm,Calm,-,N/A,,Clear,0,2013-12-25 15:35:00
10:55 AM,26.6,8.6,47,30.44,10.0,SSW,3.5,-,N/A,,Clear,200,2013-12-25 15:55:00
11:15 AM,28.4,8.6,43,30.43,10.0,SW,4.6,-,N/A,,Clear,230,2013-12-25 16:15:00
11:35 AM,28.4,6.8,40,30.42,10.0,South,6.9,-,N/A,,Clear,180,2013-12-25 16:35:00
11:55 AM,28.4,6.8,40,30.41,10.0,South,5.8,-,N/A,,Clear,170,2013-12-25 16:55:00
12:15 PM,32.0,6.8,35,30.39,10.0,SSW,6.9,-,N/A,,Clear,200,2013-12-25 17:15:00
12:35 PM,32.0,6.8,35,30.38,10.0,WSW,8.1,-,N/A,,Clear,240,2013-12-25 17:35:00
12:55 PM,33.8,3.2,28,30.36,10.0,SSW,4.6,-,N/A,,Clear,200,2013-12-25 17:55:00
1:15 PM,33.8,1.4,25,30.36,10.0,SSE,6.9,-,N/A,,Clear,160,2013-12-25 18:15:00
1:35 PM,35.6,-0.4,22,30.35,10.0,Calm,Calm,-,N/A,,Clear,0,2013-12-25 18:35:00
1:55 PM,35.6,-0.4,22,30.34,10.0,SW,4.6,-,N/A,,Clear,230,2013-12-25 18:55:00
2:15 PM,35.6,-0.4,22,30.34,10.0,South,5.8,-,N/A,,Clear,190,2013-12-25 19:15:00
2:35 PM,35.6,-0.4,22,30.33,10.0,South,4.6,-,N/A,,Clear,180,2013-12-25 19:35:00
2:55 PM,37.4,1.4,22,30.33,10.0,SSE,4.6,-,N/A,,Clear,160,2013-12-25 19:55:00
3:15 PM,37.4,1.4,22,30.33,10.0,South,6.9,-,N/A,,Clear,170,2013-12-25 20:15:00
3:35 PM,37.4,1.4,22,30.33,10.0,SSE,3.5,-,N/A,,Clear,160,2013-12-25 20:35:00
3:55 PM,35.6,1.4,24,30.33,10.0,South,4.6,-,N/A,,Clear,170,2013-12-25 20:55:00
4:15 PM,35.6,3.2,26,30.33,10.0,South,4.6,-,N/A,,Clear,180,2013-12-25 21:15:00
4:35 PM,35.6,3.2,26,30.33,10.0,South,4.6,-,N/A,,Clear,170,2013-12-25 21:35:00
4:55 PM,33.8,5.0,30,30.33,10.0,South,4.6,-,N/A,,Clear,170,2013-12-25 21:55:00
5:15 PM,32.0,5.0,32,30.33,10.0,South,4.6,-,N/A,,Clear,180,2013-12-25 22:15:00
5:35 PM,30.2,6.8,37,30.32,10.0,South,4.6,-,N/A,,Clear,190,2013-12-25 22:35:00
5:55 PM,28.4,6.8,40,30.33,10.0,SSE,3.5,-,N/A,,Clear,160,2013-12-25 22:55:00
6:15 PM,30.2,6.8,37,30.33,10.0,Calm,Calm,-,N/A,,Clear,0,2013-12-25 23:15:00
6:35 PM,30.2,5.0,34,30.33,10.0,Calm,Calm,-,N/A,,Clear,0,2013-12-25 23:35:00
6:55 PM,28.4,6.8,40,30.33,10.0,Calm,Calm,-,N/A,,Clear,0,2013-12-25 23:55:00
7:15 PM,26.6,8.6,47,30.34,10.0,WSW,3.5,-,N/A,,Clear,250,2013-12-26 00:15:00
7:35 PM,26.6,8.6,47,30.34,10.0,Calm,Calm,-,N/A,,Clear,0,2013-12-26 00:35:00
7:55 PM,26.6,10.4,51,30.34,10.0,Calm,Calm,-,N/A,,Clear,0,2013-12-26 00:55:00
8:15 PM,26.6,8.6,47,30.33,10.0,Calm,Calm,-,N/A,,Clear,0,2013-12-26 01:15:00
8:35 PM,26.6,8.6,47,30.33,10.0,Calm,Calm,-,N/A,,Clear,0,2013-12-26 01:35:00
8:55 PM,26.6,8.6,47,30.33,10.0,Calm,Calm,-,N/A,,Clear,0,2013-12-26 01:55:00
9:15 PM,24.8,10.4,54,30.33,10.0,SW,3.5,-,N/A,,Clear,230,2013-12-26 02:15:00
9:35 PM,24.8,10.4,54,30.33,10.0,Calm,Calm,-,N/A,,Clear,0,2013-12-26 02:35:00
9:55 PM,24.8,10.4,54,30.33,10.0,SW,3.5,-,N/A,,Clear,230,2013-12-26 02:55:00
10:15 PM,21.2,12.2,68,30.32,10.0,WSW,3.5,-,N/A,,Clear,240,2013-12-26 03:15:00
10:35 PM,24.8,10.4,54,30.31,10.0,Calm,Calm,-,N/A,,Clear,0,2013-12-26 03:35:00
10:55 PM,24.8,10.4,54,30.31,10.0,Calm,Calm,-,N/A,,Clear,0,2013-12-26 03:55:00
11:15 PM,23.0,8.6,54,30.30,10.0,Calm,Calm,-,N/A,,Clear,0,2013-12-26 04:15:00
11:35 PM,23.0,10.4,59,30.29,10.0,Calm,Calm,-,N/A,,Clear,0,2013-12-26 04:35:00
11:55 PM,19.4,10.4,68,30.29,10.0,Calm,Calm,-,N/A,,Clear,0,2013-12-26 04:55:00